Location: Newark
(33.6333°S, 78.8500°W)
Time: 10:39:39
(UTC+00:00)

Tiros 1 - Pass Details

Date: 26 October 2019
Orbit: 630 x 664 km, 48.4° (Epoch: 20 November)

Event Time Altitude Azimuth Distance (km) Brightness Sun altitude
Rises 00:20:28 0° 245° (WSW) 2,934 12.9 -9.4°
Reaches altitude 10° 00:23:11 10° 259° (W) 2,020 11.2 -10.0°
Maximum altitude 00:26:50 23° 311° (NW) 1,344 9.1 -10.7°
Drops below altitude 10° 00:30:28 10° 3° (N) 2,008 9.4 -11.4°
Enters shadow 00:32:24 - 15° (NNE) 2,643 9.9 -11.7°
Sets 00:33:10 0° 17° (NNE) 2,912 - -11.9°
